Location: Caltech
(34.1382°N, 118.1253°W)
Time: 12:23:24
(UTC-08:00)

PCSat - Visible Passes

Search period start: 04 December 2016 00:00
Search period end: 14 December 2016 00:00
Orbit: 786 x 794 km, 67.1° (Epoch: 03 December)

Date Brightness Start Highest point End Pass type
(mag) Time Alt. Az. Time Alt. Az. Time Alt. Az.
10 Dec 11.8 18:51:38 10° N 18:51:59 12° N 18:51:59 12° N visible
11 Dec 11.3 18:21:11 10° N 18:22:41 16° NNE 18:22:41 16° NNE visible
12 Dec 11.1 17:50:57 10° NNE 17:53:39 16° NE 17:53:39 16° NE visible
12 Dec 11.6 19:32:48 10° NNW 19:34:28 20° NW 19:34:28 20° NW visible
13 Dec 11.3 17:21:10 10° NNE 17:23:13 12° NE 17:25:04 10° ENE visible
13 Dec 10.0 19:01:54 10° NNW 19:05:54 50° NNW 19:05:54 50° NNW visible
